Beatrice, NE

9:12 AM CDT on July 28, 2017 (GMT -0500)
Beatrice Municipal

Weather History for KBIE - September, 2012

Change the Weather History Date:

Wednesday, September 5, 2012

  Actual Average Record
Temperature  
Mean Temperature 77 °F -  
Max Temperature 90 °F 85 °F 101 °F (1954)
Min Temperature 63 °F 60 °F 41 °F (1962)
Cooling Degree Days 12    
Growing Degree Days 27 (Base 50)    
Moisture  
Dew Point 53 °F    
Average Humidity 46    
Maximum Humidity 85    
Minimum Humidity 21    
Precipitation  
Precipitation 0.00 in - - ()
Sea Level Pressure  
Sea Level Pressure 29.88 in    
Wind  
Wind Speed 8 mph (North)    
Max Wind Speed 20 mph    
Max Gust Speed 28 mph    
Visibility 10 miles    
Events      
Averages and records for this station are not official NWS values.
T = Trace of Precipitation, MM = Missing Value Source: NWS Daily Summary

Daily Weather History Graph

Daily Weather History Graph

Search for Another Location

Airport or City:

Trip Planner

Search our weather history database for the weather conditions in past years. The results will help you decide how hot, cold, wet, or windy it might be!

Date:

Astronomy

Sep. 05, 2012 Rise Set
Actual Time 6:58 AM CDT 7:51 PM CDT
Civil Twilight 6:31 AM CDT 8:19 PM CDT
Nautical Twilight 5:58 AM CDT 8:51 PM CDT
Astronomical Twilight 5:24 AM CDT 9:25 PM CDT
Moon 10:21 PM CDT (9/5) 12:04 PM CDT (9/5)
Length of Visible Light 13h 48m
Length of Day
12h 52m
Waning Gibbous, 76% of the Moon is Illuminated
Sep 5
Waning Gibbous
Sep 8
Last Quarter
Sep 15
New
Sep 22
First Quarter
Sep 29
Full

Hourly Weather History & Observations

Time (CDT) Temp. Heat Index Dew Point Humidity Pressure Visibility Wind Dir Wind Speed Gust Speed Precip Events Conditions
12:15 AM 77.0 °F - 53.8 °F 44% 29.75 in 10.0 mi SW 4.6 mph - N/A   Clear
12:35 AM 75.2 °F - 54.3 °F 48% 29.75 in 10.0 mi South 5.8 mph - N/A   Clear
12:55 AM 74.8 °F - 54.5 °F 49% 29.75 in 10.0 mi SW 6.9 mph - N/A   Clear
1:15 AM 73.0 °F - 54.5 °F 52% 29.76 in 10.0 mi South 3.5 mph - N/A   Clear
1:35 AM 74.5 °F - 54.0 °F 49% 29.77 in 10.0 mi SSW 3.5 mph - N/A   Clear
1:55 AM 74.5 °F - 54.7 °F 50% 29.77 in 10.0 mi South 5.8 mph - N/A   Clear
2:15 AM 75.6 °F - 55.4 °F 49% 29.77 in 10.0 mi SW 6.9 mph - N/A   Clear
2:35 AM 76.6 °F - 56.5 °F 50% 29.78 in 10.0 mi WSW 8.1 mph - N/A   Clear
2:55 AM 74.5 °F - 57.4 °F 55% 29.79 in 10.0 mi WSW 8.1 mph - N/A   Clear
3:15 AM 73.8 °F - 57.7 °F 57% 29.80 in 10.0 mi WSW 5.8 mph - N/A   Clear
3:35 AM 74.5 °F - 58.6 °F 58% 29.80 in 10.0 mi SW 8.1 mph - N/A   Clear
3:55 AM 74.3 °F - 59.0 °F 59% 29.80 in 10.0 mi SW 8.1 mph - N/A   Clear
4:15 AM 73.6 °F - 59.4 °F 61% 29.80 in 10.0 mi SW 6.9 mph - N/A   Clear
4:35 AM 72.5 °F - 60.1 °F 65% 29.80 in 10.0 mi WSW 6.9 mph - N/A   Clear
4:55 AM 72.3 °F - 60.8 °F 67% 29.81 in 10.0 mi WSW 6.9 mph - N/A   Clear
5:15 AM 71.1 °F - 61.2 °F 71% 29.83 in 10.0 mi West 8.1 mph - N/A   Clear
5:35 AM 68.9 °F - 60.6 °F 75% 29.84 in 10.0 mi NNW 6.9 mph - N/A   Clear
5:55 AM 67.1 °F - 60.6 °F 80% 29.85 in 10.0 mi NW 3.5 mph - N/A   Clear
6:15 AM 65.5 °F - 60.8 °F 85% 29.85 in 10.0 mi Calm Calm - N/A   Clear
6:35 AM 66.0 °F - 60.3 °F 82% 29.84 in 10.0 mi Calm Calm - N/A   Clear
6:55 AM 66.2 °F - 60.8 °F 83% 29.85 in 10.0 mi Calm Calm - N/A   Clear
7:15 AM 66.2 °F - 61.0 °F 83% 29.86 in 10.0 mi SE 3.5 mph - N/A   Clear
7:35 AM 66.4 °F - 61.3 °F 84% 29.85 in 10.0 mi South 4.6 mph - N/A   Clear
7:55 AM 68.7 °F - 62.6 °F 81% 29.86 in 10.0 mi South 5.8 mph - N/A   Clear
8:15 AM 70.7 °F - 63.0 °F 76% 29.86 in 10.0 mi SSW 6.9 mph - N/A   Clear
8:35 AM 72.1 °F - 63.1 °F 73% 29.86 in 10.0 mi WSW 6.9 mph - N/A   Clear
8:55 AM 73.8 °F - 62.8 °F 68% 29.87 in 10.0 mi West 6.9 mph - N/A   Clear
9:15 AM 73.8 °F - 61.7 °F 66% 29.87 in 10.0 mi WNW 8.1 mph - N/A   Clear
9:35 AM 75.4 °F - 60.3 °F 59% 29.87 in 10.0 mi NNW 10.4 mph - N/A   Clear
9:55 AM 77.2 °F - 58.5 °F 52% 29.88 in 10.0 mi North 12.7 mph 16.1 mph N/A   Clear
10:15 AM 79.3 °F - 57.6 °F 47% 29.88 in 10.0 mi North 18.4 mph - N/A   Clear
10:35 AM 81.1 °F 81.2 °F 57.6 °F 44% 29.89 in 10.0 mi North 16.1 mph 21.9 mph N/A   Clear
10:55 AM 82.6 °F 82.2 °F 57.2 °F 42% 29.90 in 10.0 mi North 18.4 mph 27.6 mph N/A   Clear
11:15 AM 84.0 °F 83.3 °F 57.4 °F 40% 29.90 in 10.0 mi NNE 16.1 mph 23.0 mph N/A   Clear
11:35 AM 83.5 °F 82.8 °F 56.5 °F 40% 29.90 in 10.0 mi North 18.4 mph 25.3 mph N/A   Clear
11:55 AM 83.5 °F 82.6 °F 56.1 °F 39% 29.91 in 10.0 mi North 17.3 mph 24.2 mph N/A   Clear
12:15 PM 84.6 °F 83.2 °F 55.0 °F 36% 29.91 in 10.0 mi North 16.1 mph 24.2 mph N/A   Clear
12:35 PM 85.5 °F 84.1 °F 55.8 °F 36% 29.91 in 10.0 mi NNE 15.0 mph 27.6 mph N/A   Clear
12:55 PM 86.0 °F 84.5 °F 55.4 °F 35% 29.91 in 10.0 mi North 16.1 mph 24.2 mph N/A   Clear
1:15 PM 86.5 °F 84.6 °F 53.8 °F 32% 29.91 in 10.0 mi North 13.8 mph 26.5 mph N/A   Clear
1:35 PM 87.8 °F - 52.0 °F 29% 29.91 in 10.0 mi North 18.4 mph 27.6 mph N/A   Clear
1:55 PM 88.7 °F - 51.1 °F 27% 29.91 in 10.0 mi North 16.1 mph 25.3 mph N/A   Clear
2:15 PM 88.7 °F - 51.4 °F 28% 29.91 in 10.0 mi North 19.6 mph 24.2 mph N/A   Clear
2:35 PM 88.9 °F - 49.6 °F 26% 29.91 in 10.0 mi North 15.0 mph 20.7 mph N/A   Clear
2:55 PM 89.6 °F - 48.4 °F 24% 29.90 in 10.0 mi NNE 15.0 mph - N/A   Clear
3:15 PM 89.6 °F - 49.5 °F 25% 29.90 in 10.0 mi North 12.7 mph 20.7 mph N/A   Clear
3:35 PM 90.5 °F - 48.4 °F 23% 29.90 in 10.0 mi North 16.1 mph - N/A   Clear
3:55 PM 90.0 °F - 47.7 °F 23% 29.90 in 10.0 mi North 11.5 mph 19.6 mph N/A   Clear
4:15 PM 90.0 °F - 46.6 °F 22% 29.91 in 10.0 mi NNE 12.7 mph 18.4 mph N/A   Clear
4:35 PM 90.5 °F - 46.0 °F 21% 29.90 in 10.0 mi North 11.5 mph - N/A   Clear
4:55 PM 90.1 °F - 46.0 °F 22% 29.90 in 10.0 mi North 12.7 mph - N/A   Clear
5:15 PM 89.6 °F - 44.6 °F 21% 29.90 in 10.0 mi NNE 10.4 mph 17.3 mph N/A   Clear
5:35 PM 88.9 °F - 45.1 °F 22% 29.90 in 10.0 mi NNE 10.4 mph 16.1 mph N/A   Clear
5:55 PM 88.2 °F - 44.1 °F 21% 29.91 in 10.0 mi NNE 8.1 mph - N/A   Clear
6:15 PM 87.4 °F - 42.3 °F 21% 29.91 in 10.0 mi NNE 11.5 mph 16.1 mph N/A   Clear
6:35 PM 86.4 °F - 43.2 °F 22% 29.91 in 10.0 mi NNE 9.2 mph - N/A   Clear
6:55 PM 85.3 °F - 43.7 °F 23% 29.91 in 10.0 mi NNE 8.1 mph - N/A   Clear
7:15 PM 83.3 °F - 44.6 °F 26% 29.91 in 10.0 mi NE 4.6 mph - N/A   Clear
7:35 PM 80.4 °F - 45.1 °F 29% 29.91 in 10.0 mi NNE 4.6 mph - N/A   Clear
7:55 PM 79.3 °F - 45.0 °F 30% 29.92 in 10.0 mi NE 4.6 mph - N/A   Clear
8:15 PM 75.7 °F - 45.3 °F 34% 29.92 in 10.0 mi NNE 6.9 mph - N/A   Clear
8:35 PM 73.8 °F - 45.9 °F 37% 29.93 in 10.0 mi NNE 5.8 mph - N/A   Clear
8:55 PM 72.5 °F - 45.9 °F 39% 29.94 in 10.0 mi NNE 8.1 mph - N/A   Clear
9:15 PM 72.7 °F - 45.1 °F 37% 29.94 in 10.0 mi NNE 8.1 mph - N/A   Clear
9:35 PM 71.1 °F - 45.9 °F 40% 29.95 in 10.0 mi NE 6.9 mph - N/A   Clear
9:55 PM 68.7 °F - 46.4 °F 45% 29.95 in 10.0 mi NNE 6.9 mph - N/A   Clear
10:15 PM 68.4 °F - 46.4 °F 45% 29.95 in 10.0 mi NNE 8.1 mph - N/A   Clear
10:35 PM 66.9 °F - 46.9 °F 49% 29.95 in 10.0 mi NE 6.9 mph - N/A   Clear
10:55 PM 66.7 °F - 46.4 °F 48% 29.95 in 10.0 mi NNE 8.1 mph - N/A   Clear
11:15 PM 65.5 °F - 46.6 °F 50% 29.96 in 10.0 mi NE 4.6 mph - N/A   Clear
11:35 PM 64.6 °F - 46.4 °F 52% 29.96 in 10.0 mi NE 4.6 mph - N/A   Clear
11:55 PM 63.7 °F - 46.6 °F 54% 29.97 in 10.0 mi Calm Calm - N/A   Clear